This is the latest recevied weather packets stored in our database for station/object KC0UFP. If no packets are shown the sender has not sent any weather packets the latest 1 day(s).
| Time | Temp. | Humidity | Pressure | Rain* | Wind** | Luminosity | Snow |
|---|---|---|---|---|---|---|---|
| 1778046401 | 9.44° C | 99% | 1010.1 hPa | 0.51 mm | - | 0 W/m² | - |
| 1778045794 | 9.44° C | 99% | 1010.1 hPa | 1.78 mm | - | 0 W/m² | - |
| 1778045191 | 9.44° C | 99% | 1009.8 hPa | 1.78 mm | - | 0 W/m² | - |
| 1778044888 | 9.44° C | 99% | 1009.3 hPa | 0 mm | - | 0 W/m² | - |
| 1778044281 | 9.44° C | 99% | 1009.7 hPa | 0 mm | - | 0 W/m² | - |
| 1778043980 | 9.44° C | 99% | 1009.5 hPa | 0 mm | - | 0 W/m² | - |
| 1778043070 | 9.44° C | 99% | 1009.9 hPa | 0 mm | - | 0 W/m² | - |
| 1778042768 | 9.44° C | 99% | 1009.4 hPa | 0 mm | - | 0 W/m² | - |
| 1778041860 | 10° C | 99% | 1008.9 hPa | 0.51 mm | - | 0 W/m² | - |
| 1778041256 | 10° C | 99% | 1008.8 hPa | 1.27 mm | - | 0 W/m² | - |
| 1778040955 | 10° C | 99% | 1008.9 hPa | 1.78 mm | - | 0 W/m² | - |
| 1778040651 | 10° C | 99% | 1008.5 hPa | 1.27 mm | - | 0 W/m² | - |
| 1778040349 | 10° C | 99% | 1008.5 hPa | 0.51 mm | - | 0 W/m² | - |
| 1778040045 | 10° C | 99% | 1008.8 hPa | 0 mm | - | 0 W/m² | - |
| 1778039742 | 10° C | 99% | 1008.5 hPa | 0 mm | - | 0 W/m² | - |
| 1778039136 | 10° C | 99% | 1008.4 hPa | 0.51 mm | - | 0 W/m² | - |
| 1778038530 | 10.56° C | 99% | 1008.7 hPa | 3.05 mm | - | 0 W/m² | - |
| 1778038227 | 10.56° C | 99% | 1008.6 hPa | 7.11 mm | - | 0 W/m² | - |
| 1778037621 | 10.56° C | 99% | 1008.8 hPa | 0 mm | - | 0 W/m² | - |
| 1778037319 | 11.11° C | 99% | 1008.2 hPa | 0.51 mm | - | 0 W/m² | - |
| 1778036714 | 11.11° C | 99% | 1008.2 hPa | 0.51 mm | - | 0 W/m² | - |
| 1778036411 | 11.11° C | 99% | 1008 hPa | 1.27 mm | - | 0 W/m² | - |
| 1778036107 | 11.11° C | 99% | 1007.9 hPa | 1.78 mm | - | 0 W/m² | - |
| 1778035804 | 11.11° C | 99% | 1008 hPa | 0.51 mm | - | 0 W/m² | - |
| 1778035501 | 11.11° C | 99% | 1008.2 hPa | 0 mm | - | 0 W/m² | - |
* Rain latest hour (hover to see other rain measurements)
** Current wind speed in m/s (hover to see current wind gust speed)